Weather History for Gwinn, MI

Change the Weather History Date:

Wednesday, October 10, 2012

  Actual Average (KESC) Record (KESC)
Temperature  
Mean Temperature 34 °F -  
Max Temperature 39 °F 55 °F 82 °F (1960)
Min Temperature 29 °F 41 °F 28 °F (2000)
Degree Days  
Heating Degree Days 31    
Moisture  
Dew Point 28 °F    
Average Humidity 79    
Maximum Humidity 92    
Minimum Humidity 52    
Precipitation  
Precipitation 0.00 in - - ()
Sea Level Pressure  
Sea Level Pressure 29.83 in    
Wind  
Wind Speed 7 mph (West)    
Max Wind Speed 18 mph    
Max Gust Speed 26 mph    
Visibility 10 miles    
Events Snow    
Averages and records for this station are not official NWS values.
T = Trace of Precipitation, MM = Missing Value Source: NWS Daily Summary

Daily Weather History Graph

Daily Weather History Graph

Search for Another Location

Airport:

Trip Planner

Search our weather history database for the weather conditions in past years. The results will help you decide how hot, cold, wet, or windy it might be!

Date:

Astronomy

Oct. 10, 2012 Rise Set
Actual Time 8:00 AM EDT 7:11 PM EDT
Civil Twilight 7:30 AM EDT 7:41 PM EDT
Nautical Twilight 6:55 AM EDT 8:16 PM EDT
Astronomical Twilight 6:20 AM EDT 8:51 PM EDT
Moon 2:19 AM EDT (10/10) 4:28 PM EDT (10/10)
Length of Visible Light 12h 10m
Length of Day
11h 10m
Waning Crescent, 27% of the Moon is Illuminated
Oct 10
Waning Crescent
Oct 15
New
Oct 21
First Quarter
Oct 29
Full
Nov 6
Last Quarter

Hourly Weather History & Observations

Time (EDT) Temp. Windchill Dew Point Humidity Pressure Visibility Wind Dir Wind Speed Gust Speed Precip Events Conditions
12:16 AM 34.9 °F 29.0 °F 32.4 °F 91% 29.70 in 10.0 mi SW 6.9 mph - N/A   Clear
12:35 AM 34.5 °F 29.4 °F 32.0 °F 90% 29.70 in 10.0 mi West 5.8 mph - N/A   Clear
12:56 AM 34.3 °F 29.2 °F 32.0 °F 91% 29.70 in 10.0 mi West 5.8 mph - N/A   Clear
1:16 AM 34.2 °F 28.2 °F 31.8 °F 91% 29.70 in 10.0 mi West 6.9 mph - N/A   Clear
1:35 AM 34.3 °F 29.2 °F 31.8 °F 90% 29.70 in 10.0 mi West 5.8 mph - N/A   Scattered Clouds
1:56 AM 34.3 °F 28.4 °F 31.8 °F 90% 29.71 in 10.0 mi West 6.9 mph - N/A   Scattered Clouds
2:16 AM 34.3 °F 29.2 °F 31.8 °F 90% 29.71 in 10.0 mi West 5.8 mph - N/A   Mostly Cloudy
2:35 AM 34.7 °F 28.8 °F 31.8 °F 89% 29.71 in 10.0 mi WNW 6.9 mph - N/A   Overcast
2:56 AM 34.7 °F 30.6 °F 32.0 °F 90% 29.72 in 7.0 mi WNW 4.6 mph - N/A   Overcast
3:16 AM 34.0 °F 29.8 °F 31.8 °F 92% 29.72 in 10.0 mi WNW 4.6 mph - N/A   Mostly Cloudy
3:36 AM 34.0 °F 25.5 °F 31.5 °F 90% 29.73 in 3.0 mi WNW 11.5 mph 16.1 mph N/A Snow Light Snow
3:56 AM 33.8 °F 27.0 °F 31.5 °F 91% 29.73 in 10.0 mi West 8.1 mph 19.6 mph N/A   Overcast
4:16 AM 33.8 °F 26.4 °F 30.6 °F 88% 29.72 in 10.0 mi West 9.2 mph 16.1 mph N/A   Mostly Cloudy
4:36 AM 33.1 °F 26.1 °F 30.7 °F 91% 29.73 in 10.0 mi West 8.1 mph - N/A   Clear
4:56 AM 32.9 °F 27.5 °F 30.4 °F 90% 29.73 in 10.0 mi West 5.8 mph - N/A   Scattered Clouds
5:15 AM 32.5 °F 27.1 °F 30.2 °F 91% 29.74 in 10.0 mi WNW 5.8 mph - N/A   Mostly Cloudy
5:36 AM 32.4 °F - 30.0 °F 91% 29.75 in 10.0 mi Calm Calm - N/A   Mostly Cloudy
5:56 AM 32.0 °F - 29.5 °F 90% 29.75 in 10.0 mi Calm Calm - N/A   Scattered Clouds
6:50 AM 32.0 °F - 28.4 °F 87% 29.77 in 10.0 mi Calm Calm - N/A   Scattered Clouds
7:50 AM 32.0 °F 24.8 °F 28.4 °F 87% 29.79 in 10.0 mi WNW 8.1 mph - N/A   Scattered Clouds
8:50 AM 32.0 °F 24.2 °F 28.4 °F 87% 29.80 in 10.0 mi West 9.2 mph - N/A   Mostly Cloudy
9:50 AM 35.6 °F 27.5 °F 30.2 °F 81% 29.82 in 10.0 mi WNW 11.5 mph 17.3 mph N/A   Scattered Clouds
10:50 AM 37.4 °F 27.5 °F 30.2 °F 75% 29.83 in 10.0 mi West 18.4 mph 25.3 mph N/A   Scattered Clouds
11:50 AM 39.2 °F 32.5 °F 28.4 °F 65% 29.85 in 10.0 mi WNW 10.4 mph - N/A   Overcast
12:50 PM 37.4 °F 27.5 °F 28.4 °F 70% 29.88 in 5.0 mi NNW 18.4 mph 25.3 mph N/A Snow Light Snow
1:50 PM 37.4 °F 28.2 °F 24.8 °F 60% 29.89 in 10.0 mi NW 16.1 mph 26.5 mph N/A   Overcast
2:50 PM 37.4 °F 28.9 °F 23.0 °F 56% 29.90 in 10.0 mi West 13.8 mph 21.9 mph N/A   Overcast
3:50 PM 37.4 °F 27.5 °F 21.2 °F 52% 29.92 in 10.0 mi WNW 18.4 mph 24.2 mph N/A   Overcast
5:50 PM 37.4 °F 31.4 °F 21.2 °F 52% 29.95 in 10.0 mi WNW 8.1 mph 23.0 mph N/A   Overcast
6:50 PM 35.6 °F 29.9 °F 21.2 °F 56% 29.96 in 10.0 mi WNW 6.9 mph - N/A   Scattered Clouds
7:50 PM 33.8 °F 30.8 °F 21.2 °F 60% 29.98 in 10.0 mi SW 3.5 mph - N/A   Clear
8:50 PM 32.0 °F 27.5 °F 21.2 °F 64% 29.99 in 10.0 mi SSW 4.6 mph - N/A   Mostly Cloudy
9:50 PM 30.2 °F 26.7 °F 23.0 °F 75% 29.99 in 10.0 mi SSW 3.5 mph - N/A   Overcast
10:16 PM 30.6 °F 27.1 °F 22.5 °F 72% 29.99 in 10.0 mi SSW 3.5 mph - N/A   Scattered Clouds
10:36 PM 29.8 °F 26.3 °F 22.1 °F 73% 29.99 in 10.0 mi SSW 3.5 mph - N/A   Scattered Clouds
10:56 PM 30.4 °F 25.6 °F 22.1 °F 71% 29.98 in 10.0 mi South 4.6 mph - N/A   Clear
11:16 PM 30.2 °F 24.3 °F 22.8 °F 74% 29.98 in 10.0 mi South 5.8 mph - N/A   Mostly Cloudy
11:36 PM 31.5 °F 26.8 °F 23.4 °F 72% 29.99 in 10.0 mi South 4.6 mph - N/A   Overcast
11:56 PM 31.6 °F 25.1 °F 23.5 °F 72% 29.99 in 10.0 mi SSW 6.9 mph - N/A   Overcast